| time (UTC) | temp C | wind direction | speed KPH | gust KPH | rain 1hr cm | rain 24hr cm | rain mn cm | humidity % | barometer mb |
| 20260505004010 | 17 | 192 | 8.0 | 16.1 | 0.00 | 0.00 | 0.00 | 50 | 1007.7 |
| 20260505003516 | 17 | 188 | 4.8 | 16.1 | 0.00 | 0.00 | 0.00 | 50 | 1007.6 |
| 20260505003027 | 17 | 182 | 9.7 | 16.1 | 0.00 | 0.00 | 0.00 | 49 | 1007.4 |
| 20260505002512 | 17 | 179 | 4.8 | 19.3 | 0.00 | 0.00 | 0.00 | 50 | 1007.3 |
| 20260505002013 | 17 | 173 | 6.4 | 20.9 | 0.00 | 0.00 | 0.00 | 49 | 1007.2 |
| 20260505001528 | 17 | 195 | 8.0 | 20.9 | 0.00 | 0.00 | 0.00 | 50 | 1007.2 |
| 20260505001012 | 17 | 190 | 3.2 | 11.3 | 0.00 | 0.00 | 0.00 | 51 | 1007.3 |
| 20260505000513 | 17 | 220 | 4.8 | 11.3 | 0.00 | 0.00 | 0.00 | 50 | 1007.3 |
| 20260505000042 | 17 | 189 | 3.2 | 8.0 | 0.00 | 0.00 | 0.00 | 49 | 1007.1 |
| 20260504235510 | 17 | 184 | 1.6 | 16.1 | 0.00 | 0.00 | 0.00 | 50 | 1007.1 |
| 20260504235012 | 18 | 184 | 3.2 | 16.1 | 0.00 | 0.00 | 0.00 | 50 | 1007.1 |
| 20260504234528 | 18 | 181 | 6.4 | 14.5 | 0.00 | 0.00 | 0.00 | 47 | 1007.1 |
| 20260504234012 | 18 | 196 | 8.0 | 14.5 | 0.00 | 0.00 | 0.00 | 47 | 1007.0 |
| 20260504233512 | 18 | 163 | 4.8 | 11.3 | 0.00 | 0.00 | 0.00 | 47 | 1007.0 |
| 20260504233030 | 18 | 190 | 6.4 | 12.9 | 0.00 | 0.00 | 0.00 | 47 | 1006.9 |
| 20260504232511 | 18 | 198 | 4.8 | 16.1 | 0.00 | 0.00 | 0.00 | 46 | 1007.0 |
| 20260504232012 | 19 | 216 | 8.0 | 25.7 | 0.00 | 0.00 | 0.00 | 45 | 1006.9 |
| 20260504231530 | 19 | 204 | 9.7 | 25.7 | 0.00 | 0.00 | 0.00 | 46 | 1007.0 |
| 20260504231019 | 19 | 203 | 8.0 | 17.7 | 0.00 | 0.00 | 0.00 | 44 | 1006.9 |
| 20260504230511 | 20 | 205 | 8.0 | 20.9 | 0.00 | 0.00 | 0.00 | 43 | 1006.8 |
| 20260504230028 | 20 | 185 | 11.3 | 20.9 | 0.00 | 0.00 | 0.00 | 43 | 1006.7 |
| 20260504225514 | 20 | 201 | 9.7 | 17.7 | 0.00 | 0.00 | 0.00 | 43 | 1006.8 |
| 20260504225012 | 20 | 225 | 8.0 | 17.7 | 0.00 | 0.00 | 0.00 | 43 | 1006.7 |
| 20260504224528 | 20 | 243 | 4.8 | 17.7 | 0.00 | 0.00 | 0.00 | 45 | 1006.7 |
| 20260504224013 | 20 | 188 | 8.0 | 22.5 | 0.00 | 0.00 | 0.00 | 43 | 1006.6 |
| 20260504223512 | 20 | 230 | 8.0 | 22.5 | 0.00 | 0.00 | 0.00 | 43 | 1006.7 |
| 20260504223028 | 20 | 174 | 9.7 | 25.7 | 0.00 | 0.00 | 0.00 | 41 | 1006.7 |
| 20260504222511 | 20 | 215 | 11.3 | 27.4 | 0.00 | 0.00 | 0.00 | 42 | 1006.6 |
| 20260504222010 | 20 | 213 | 17.7 | 27.4 | 0.00 | 0.00 | 0.00 | 41 | 1006.6 |
| 20260504221529 | 20 | 194 | 11.3 | 25.7 | 0.00 | 0.00 | 0.00 | 42 | 1006.6 |
| 20260504221011 | 20 | 223 | 14.5 | 25.7 | 0.00 | 0.00 | 0.00 | 41 | 1006.7 |
| 20260504220513 | 20 | 184 | 11.3 | 24.1 | 0.00 | 0.00 | 0.00 | 43 | 1006.7 |
| 20260504220042 | 20 | 169 | 12.9 | 30.6 | 0.00 | 0.00 | 0.00 | 42 | 1006.8 |
| 20260504215513 | 20 | 186 | 16.1 | 25.7 | 0.00 | 0.00 | 0.00 | 41 | 1006.6 |
| 20260504215013 | 20 | 173 | 11.3 | 20.9 | 0.00 | 0.00 | 0.00 | 42 | 1006.5 |
| 20260504214534 | 20 | 178 | 6.4 | 29.0 | 0.00 | 0.00 | 0.00 | 41 | 1006.5 |
| 20260504214012 | 20 | 180 | 12.9 | 29.0 | 0.00 | 0.00 | 0.00 | 40 | 1006.6 |
| 20260504213512 | 20 | 161 | 9.7 | 17.7 | 0.00 | 0.00 | 0.00 | 43 | 1006.7 |
| 20260504213031 | 20 | 173 | 9.7 | 20.9 | 0.00 | 0.00 | 0.00 | 43 | 1006.7 |
| 20260504212511 | 20 | 242 | 8.0 | 29.0 | 0.00 | 0.00 | 0.00 | 44 | 1006.7 |
| 20260504212011 | 20 | 205 | 9.7 | 29.0 | 0.00 | 0.00 | 0.00 | 43 | 1006.8 |
| 20260504211536 | 20 | 150 | 11.3 | 25.7 | 0.00 | 0.00 | 0.00 | 42 | 1006.9 |
| 20260504211012 | 20 | 252 | 9.7 | 27.4 | 0.00 | 0.00 | 0.00 | 43 | 1007.0 |
| 20260504210512 | 20 | 169 | 12.9 | 27.4 | 0.00 | 0.00 | 0.00 | 44 | 1007.1 |
| 20260504210026 | 20 | 200 | 11.3 | 19.3 | 0.00 | 0.00 | 0.00 | 43 | 1007.0 |
| 20260504205512 | 20 | 221 | 12.9 | 22.5 | 0.00 | 0.00 | 0.00 | 42 | 1007.2 |
| 20260504205012 | 20 | 217 | 9.7 | 22.5 | 0.00 | 0.00 | 0.00 | 43 | 1007.1 |
| 20260504204538 | 20 | 215 | 8.0 | 17.7 | 0.00 | 0.00 | 0.00 | 41 | 1007.1 |
| 20260504204015 | 20 | 256 | 8.0 | 16.1 | 0.00 | 0.00 | 0.00 | 43 | 1007.3 |
| 20260504203514 | 20 | 242 | 4.8 | 24.1 | 0.00 | 0.00 | 0.00 | 40 | 1007.4 |
| 20260504203028 | 20 | 190 | 9.7 | 24.1 | 0.00 | 0.00 | 0.00 | 42 | 1007.4 |
| 20260504202513 | 20 | 215 | 9.7 | 19.3 | 0.00 | 0.00 | 0.00 | 40 | 1007.6 |
| 20260504202012 | 20 | 171 | 6.4 | 24.1 | 0.00 | 0.00 | 0.00 | 43 | 1007.6 |
| 20260504201528 | 20 | 239 | 9.7 | 24.1 | 0.00 | 0.00 | 0.00 | 43 | 1007.7 |
| 20260504201009 | 20 | 202 | 9.7 | 29.0 | 0.00 | 0.00 | 0.00 | 42 | 1007.7 |
| 20260504200513 | 20 | 185 | 16.1 | 29.0 | 0.00 | 0.00 | 0.00 | 41 | 1007.8 |
| 20260504200030 | 20 | 184 | 9.7 | 29.0 | 0.00 | 0.00 | 0.00 | 42 | 1007.9 |
| 20260504195511 | 20 | 200 | 8.0 | 20.9 | 0.00 | 0.00 | 0.00 | 41 | 1007.9 |
| 20260504195012 | 20 | 254 | 8.0 | 16.1 | 0.00 | 0.00 | 0.00 | 45 | 1007.9 |
| 20260504194528 | 19 | 227 | 8.0 | 22.5 | 0.00 | 0.00 | 0.00 | 44 | 1008.0 |
| 20260504194013 | 19 | 202 | 9.7 | 35.4 | 0.00 | 0.00 | 0.00 | 44 | 1008.0 |
| 20260504193512 | 19 | 246 | 9.7 | 35.4 | 0.00 | 0.00 | 0.00 | 40 | 1008.1 |
| 20260504193030 | 19 | 227 | 12.9 | 32.2 | 0.00 | 0.00 | 0.00 | 41 | 1008.1 |
| 20260504192514 | 19 | 200 | 8.0 | 25.7 | 0.00 | 0.00 | 0.00 | 42 | 1008.2 |
| 20260504192013 | 20 | 226 | 12.9 | 27.4 | 0.00 | 0.00 | 0.00 | 41 | 1008.3 |
| 20260504191529 | 19 | 202 | 11.3 | 29.0 | 0.00 | 0.00 | 0.00 | 43 | 1008.2 |
| 20260504191014 | 20 | 188 | 11.3 | 29.0 | 0.00 | 0.00 | 0.00 | 43 | 1008.4 |
| 20260504190514 | 19 | 211 | 9.7 | 25.7 | 0.00 | 0.00 | 0.00 | 42 | 1008.5 |
| 20260504190030 | 18 | 218 | 8.0 | 25.7 | 0.00 | 0.00 | 0.00 | 48 | 1008.5 |
| 20260504185512 | 18 | 209 | 14.5 | 25.7 | 0.00 | 0.00 | 0.00 | 46 | 1008.5 |
| 20260504185016 | 18 | 209 | 9.7 | 17.7 | 0.00 | 0.00 | 0.00 | 46 | 1008.5 |
| 20260504184527 | 18 | 200 | 8.0 | 19.3 | 0.00 | 0.00 | 0.00 | 46 | 1008.5 |
| 20260504184015 | 18 | 219 | 9.7 | 25.7 | 0.00 | 0.00 | 0.00 | 48 | 1008.6 |
| 20260504183030 | 18 | 184 | 11.3 | 25.7 | 0.00 | 0.00 | 0.00 | 45 | 1008.6 |
| 20260504182509 | 18 | 248 | 12.9 | 30.6 | 0.00 | 0.00 | 0.00 | 47 | 1008.7 |
| 20260504182010 | 18 | 179 | 17.7 | 30.6 | 0.00 | 0.00 | 0.00 | 43 | 1008.7 |
| 20260504181531 | 18 | 232 | 11.3 | 32.2 | 0.00 | 0.00 | 0.00 | 45 | 1008.6 |
| 20260504181010 | 18 | 221 | 12.9 | 32.2 | 0.00 | 0.00 | 0.00 | 44 | 1008.7 |
| 20260504180511 | 18 | 180 | 6.4 | 22.5 | 0.00 | 0.00 | 0.00 | 48 | 1008.8 |
| 20260504180028 | 19 | 244 | 9.7 | 30.6 | 0.00 | 0.00 | 0.00 | 43 | 1008.7 |
| 20260504175512 | 18 | 239 | 11.3 | 30.6 | 0.00 | 0.00 | 0.00 | 44 | 1008.8 |
| 20260504175015 | 18 | 204 | 12.9 | 29.0 | 0.00 | 0.00 | 0.00 | 42 | 1008.8 |
| 20260504174530 | 18 | 204 | 9.7 | 29.0 | 0.00 | 0.00 | 0.00 | 47 | 1008.9 |
| 20260504174010 | 18 | 200 | 12.9 | 27.4 | 0.00 | 0.00 | 0.00 | 46 | 1008.8 |
| 20260504173512 | 18 | 189 | 8.0 | 29.0 | 0.00 | 0.00 | 0.00 | 47 | 1008.9 |
| 20260504173030 | 18 | 211 | 12.9 | 29.0 | 0.00 | 0.00 | 0.00 | 47 | 1008.9 |
| 20260504172512 | 18 | 209 | 9.7 | 20.9 | 0.00 | 0.00 | 0.00 | 43 | 1009.1 |
| 20260504172012 | 18 | 266 | 11.3 | 20.9 | 0.00 | 0.00 | 0.00 | 47 | 1009.3 |
| 20260504171528 | 17 | 230 | 9.7 | 17.7 | 0.00 | 0.00 | 0.00 | 44 | 1009.3 |
| 20260504171012 | 18 | 194 | 6.4 | 20.9 | 0.00 | 0.00 | 0.00 | 45 | 1009.2 |
| 20260504170512 | 18 | 175 | 12.9 | 25.7 | 0.00 | 0.00 | 0.00 | 49 | 1009.3 |
| 20260504151013 | 15 | 162 | 16.1 | 30.6 | 0.00 | 0.00 | 0.00 | 46 | 1010.7 |
| 20260504150517 | 15 | 183 | 14.5 | 27.4 | 0.00 | 0.00 | 0.00 | 50 | 1010.7 |
| 20260504141012 | 13 | 192 | 11.3 | 27.4 | 0.00 | 0.00 | 0.00 | 51 | 1011.0 |
| 20260504140510 | 13 | 227 | 12.9 | 27.4 | 0.00 | 0.00 | 0.00 | 50 | 1011.1 |
| 20260504130509 | 11 | 213 | 11.3 | 19.3 | 0.00 | 0.00 | 0.00 | 57 | 1011.5 |
| 20260504110512 | 5 | 190 | 1.6 | 4.8 | 0.00 | 0.00 | 0.00 | 74 | 1011.8 |
| 20260504100513 | 1 | 0 | 0.0 | 3.2 | 0.00 | 0.00 | 0.00 | 84 | 1011.6 |
| 20260504081530 | 1 | 355 | 0.0 | 4.8 | 0.00 | 0.00 | 0.00 | 85 | 1011.9 |
| 20260504081013 | 1 | 355 | 1.6 | 4.8 | 0.00 | 0.00 | 0.00 | 84 | 1011.9 |
| 20260504080513 | 1 | 355 | 0.0 | 3.2 | 0.00 | 0.00 | 0.00 | 85 | 1011.9 |
| 20260504050511 | 3 | 0 | 0.0 | 0.0 | 0.00 | 0.00 | 0.00 | 76 | 1011.6 |
| 20260504045511 | 3 | 0 | 0.0 | 0.0 | 0.00 | 0.00 | 0.00 | 75 | 1011.6 |
| 20260504045011 | 3 | 0 | 0.0 | 0.0 | 0.00 | 0.00 | 0.00 | 76 | 1011.6 |
| 20260504044535 | 3 | 0 | 0.0 | 0.0 | 0.00 | 0.00 | 0.00 | 75 | 1011.6 |
| 20260504044011 | 3 | 0 | 0.0 | 0.0 | 0.00 | 0.00 | 0.00 | 75 | 1011.6 |
| 20260504043512 | 3 | 0 | 0.0 | 0.0 | 0.00 | 0.00 | 0.00 | 75 | 1011.6 |
| 20260504043040 | 3 | 0 | 0.0 | 0.0 | 0.00 | 0.00 | 0.00 | 74 | 1011.6 |
| 20260504042511 | 4 | 0 | 0.0 | 0.0 | 0.00 | 0.00 | 0.00 | 73 | 1011.6 |
| 20260504042014 | 4 | 0 | 0.0 | 0.0 | 0.00 | 0.00 | 0.00 | 73 | 1011.6 |
| 20260504041528 | 4 | 0 | 0.0 | 0.0 | 0.00 | 0.00 | 0.00 | 72 | 1011.5 |
| 20260504041011 | 4 | 0 | 0.0 | 0.0 | 0.00 | 0.00 | 0.00 | 72 | 1011.5 |
| 20260504040513 | 4 | 0 | 0.0 | 0.0 | 0.00 | 0.00 | 0.00 | 72 | 1011.5 |
| 20260504040033 | 5 | 0 | 0.0 | 0.0 | 0.00 | 0.00 | 0.00 | 71 | 1011.5 |
| 20260504035514 | 5 | 0 | 0.0 | 0.0 | 0.00 | 0.00 | 0.00 | 70 | 1011.5 |
| 20260504035012 | 5 | 0 | 0.0 | 0.0 | 0.00 | 0.00 | 0.00 | 69 | 1011.6 |
| 20260504034534 | 5 | 0 | 0.0 | 0.0 | 0.00 | 0.00 | 0.00 | 68 | 1011.5 |
| 20260504034014 | 5 | 0 | 0.0 | 0.0 | 0.00 | 0.00 | 0.00 | 68 | 1011.5 |
| 20260504033514 | 5 | 0 | 0.0 | 0.0 | 0.00 | 0.00 | 0.00 | 67 | 1011.4 |
| 20260504033029 | 6 | 0 | 0.0 | 0.0 | 0.00 | 0.00 | 0.00 | 66 | 1011.4 |
| 20260504032513 | 6 | 0 | 0.0 | 0.0 | 0.00 | 0.00 | 0.00 | 65 | 1011.5 |
| 20260504032015 | 6 | 0 | 0.0 | 0.0 | 0.00 | 0.00 | 0.00 | 63 | 1011.4 |
| 20260504031530 | 7 | 0 | 0.0 | 0.0 | 0.00 | 0.00 | 0.00 | 63 | 1011.4 |
| 20260504031012 | 7 | 0 | 0.0 | 0.0 | 0.00 | 0.00 | 0.00 | 63 | 1011.4 |
| 20260504030513 | 7 | 0 | 0.0 | 0.0 | 0.00 | 0.00 | 0.00 | 62 | 1011.4 |
| 20260504030030 | 7 | 0 | 0.0 | 0.0 | 0.00 | 0.00 | 0.00 | 63 | 1011.4 |
| 20260504025515 | 7 | 0 | 0.0 | 0.0 | 0.00 | 0.00 | 0.00 | 62 | 1011.4 |
| 20260504025014 | 7 | 0 | 0.0 | 0.0 | 0.00 | 0.00 | 0.00 | 63 | 1011.4 |
| 20260504024530 | 7 | 0 | 0.0 | 0.0 | 0.00 | 0.00 | 0.00 | 62 | 1011.4 |
| 20260504024013 | 7 | 0 | 0.0 | 0.0 | 0.00 | 0.00 | 0.00 | 63 | 1011.5 |
| 20260504023513 | 7 | 0 | 0.0 | 0.0 | 0.00 | 0.00 | 0.00 | 64 | 1011.4 |
| 20260504023031 | 6 | 0 | 0.0 | 0.0 | 0.00 | 0.00 | 0.00 | 65 | 1011.5 |
| 20260504022514 | 6 | 0 | 0.0 | 0.0 | 0.00 | 0.00 | 0.00 | 65 | 1011.5 |
| 20260504022012 | 6 | 0 | 0.0 | 0.0 | 0.00 | 0.00 | 0.00 | 65 | 1011.5 |
| 20260504021534 | 6 | 0 | 0.0 | 0.0 | 0.00 | 0.00 | 0.00 | 65 | 1011.5 |
| 20260504021012 | 6 | 0 | 0.0 | 0.0 | 0.00 | 0.00 | 0.00 | 64 | 1011.5 |
| 20260504020512 | 7 | 0 | 0.0 | 0.0 | 0.00 | 0.00 | 0.00 | 64 | 1011.6 |
| 20260504020037 | 7 | 0 | 0.0 | 0.0 | 0.00 | 0.00 | 0.00 | 64 | 1011.4 |
| 20260504015513 | 6 | 0 | 0.0 | 0.0 | 0.00 | 0.00 | 0.00 | 64 | 1011.3 |
| 20260504015014 | 6 | 0 | 0.0 | 0.0 | 0.00 | 0.00 | 0.00 | 65 | 1011.4 |
| 20260504014536 | 6 | 0 | 0.0 | 0.0 | 0.00 | 0.00 | 0.00 | 65 | 1011.4 |
| 20260504014013 | 6 | 0 | 0.0 | 0.0 | 0.00 | 0.00 | 0.00 | 65 | 1011.3 |
| 20260504013515 | 6 | 0 | 0.0 | 0.0 | 0.00 | 0.00 | 0.00 | 65 | 1011.3 |
| 20260504013031 | 6 | 0 | 0.0 | 0.0 | 0.00 | 0.00 | 0.00 | 65 | 1011.2 |
| 20260504012513 | 6 | 0 | 0.0 | 0.0 | 0.00 | 0.00 | 0.00 | 65 | 1011.2 |
| 20260504012013 | 6 | 0 | 0.0 | 0.0 | 0.00 | 0.00 | 0.00 | 65 | 1011.1 |
| 20260504011529 | 6 | 0 | 0.0 | 0.0 | 0.00 | 0.00 | 0.00 | 64 | 1011.2 |
| 20260504011012 | 7 | 0 | 0.0 | 0.0 | 0.00 | 0.00 | 0.00 | 63 | 1011.1 |
| 20260504010516 | 7 | 0 | 0.0 | 0.0 | 0.00 | 0.00 | 0.00 | 63 | 1011.0 |
| 20260504010030 | 7 | 0 | 0.0 | 0.0 | 0.00 | 0.00 | 0.00 | 63 | 1011.0 |
| 20260504005514 | 7 | 0 | 0.0 | 0.0 | 0.00 | 0.00 | 0.00 | 63 | 1011.0 |
| 20260504005011 | 7 | 0 | 0.0 | 0.0 | 0.00 | 0.00 | 0.00 | 63 | 1010.8 |
| 20260504004534 | 7 | 0 | 0.0 | 0.0 | 0.00 | 0.00 | 0.00 | 63 | 1011.0 |